ACA242 CYDF-CYHZ

Flight info

Callsign ACA242
Flight time 0h 59m
Altitude 38000
Route CAYLY CABOT5
Aircraft A319/M-SDE3FGHIRWY/LB1

Departure

Time 2026-04-26 03:06
Airport Deer Lake Airport (CYDF)

Arrival

Time 2026-04-26 04:06
Airport Halifax / Stanfield International Airport (CYHZ)
Time Latitude Longitude Altitude Speed Heading
2026-04-26 02:49 49.20963 -57.39823 38 ft 0 kts 321°
2026-04-26 02:58 49.20963 -57.39822 38 ft 1 kts 322°
2026-04-26 02:58 49.20952 -57.39809 38 ft 2 kts 320°
2026-04-26 02:58 49.20949 -57.39805 39 ft 2 kts 326°
2026-04-26 02:58 49.20935 -57.39798 39 ft 2 kts 356°
2026-04-26 02:59 49.20927 -57.39798 39 ft 2 kts 10°
2026-04-26 02:59 49.20914 -57.39805 38 ft 2 kts 33°
2026-04-26 02:59 49.20908 -57.39812 38 ft 1 kts 47°
2026-04-26 03:00 49.20904 -57.39819 38 ft 0 kts 49°
2026-04-26 03:02 49.20915 -57.39800 38 ft 6 kts 49°
2026-04-26 03:02 49.20974 -57.39698 38 ft 16 kts 49°
2026-04-26 03:02 49.21056 -57.39568 40 ft 16 kts 45°
2026-04-26 03:02 49.21107 -57.39429 43 ft 14 kts 112°
2026-04-26 03:03 49.21041 -57.39316 44 ft 14 kts 130°
2026-04-26 03:03 49.21073 -57.39196 44 ft 13 kts 47°
2026-04-26 03:03 49.21136 -57.39094 46 ft 13 kts 46°
2026-04-26 03:03 49.21207 -57.38981 48 ft 15 kts 46°
2026-04-26 03:04 49.21285 -57.38858 48 ft 16 kts 47°
2026-04-26 03:04 49.21359 -57.38732 51 ft 15 kts 49°
2026-04-26 03:04 49.21433 -57.38605 53 ft 16 kts 48°
2026-04-26 03:04 49.21512 -57.38480 56 ft 16 kts 45°
2026-04-26 03:05 49.21599 -57.38349 56 ft 17 kts 44°
2026-04-26 03:05 49.21675 -57.38281 55 ft 9 kts 117°
2026-04-26 03:05 49.21626 -57.38303 55 ft 0 kts 220°
2026-04-26 03:05 49.21620 -57.38311 55 ft 11 kts 220°
2026-04-26 03:06 49.21372 -57.38712 51 ft 90 kts 227°
2026-04-26 03:06 49.20776 -57.39671 60 ft 151 kts 227°
2026-04-26 03:06 49.20025 -57.40880 541 ft 164 kts 229°
2026-04-26 03:06 49.19223 -57.42126 1283 ft 167 kts 228°
2026-04-26 03:07 49.18372 -57.43328 1999 ft 172 kts 227°
2026-04-26 03:07 49.17447 -57.44566 2484 ft 188 kts 227°
2026-04-26 03:07 49.16404 -57.45931 2974 ft 205 kts 226°
2026-04-26 03:07 49.15282 -57.47400 3468 ft 223 kts 228°
2026-04-26 03:08 49.14112 -57.49075 3926 ft 244 kts 230°
2026-04-26 03:08 49.12852 -57.50979 4505 ft 263 kts 230°
2026-04-26 03:08 49.11527 -57.52987 5089 ft 281 kts 229°
2026-04-26 03:08 49.10085 -57.55156 5675 ft 300 kts 229°
2026-04-26 03:09 49.08558 -57.57432 6394 ft 313 kts 227°
2026-04-26 03:09 49.06999 -57.59737 7205 ft 321 kts 227°
2026-04-26 03:09 49.05384 -57.62116 8130 ft 326 kts 227°
2026-04-26 03:09 49.03753 -57.64515 9061 ft 329 kts 227°
2026-04-26 03:10 49.02117 -57.66922 9945 ft 333 kts 226°
2026-04-26 03:10 49.00452 -57.69376 10722 ft 341 kts 226°
2026-04-26 03:10 48.98720 -57.71925 11493 ft 349 kts 227°
2026-04-26 03:10 48.96978 -57.74485 12366 ft 351 kts 227°
2026-04-26 03:11 48.95242 -57.77031 13203 ft 354 kts 227°
2026-04-26 03:11 48.93464 -57.79640 14017 ft 357 kts 227°
2026-04-26 03:11 48.91677 -57.82265 14818 ft 359 kts 227°
2026-04-26 03:11 48.89878 -57.84904 15578 ft 363 kts 227°
2026-04-26 03:12 48.88065 -57.87561 16272 ft 367 kts 228°
2026-04-26 03:12 48.86230 -57.90244 16973 ft 370 kts 227°
2026-04-26 03:12 48.84387 -57.92938 17651 ft 374 kts 227°
2026-04-26 03:12 48.82501 -57.95694 18306 ft 378 kts 227°
2026-04-26 03:13 48.80607 -57.98454 18986 ft 381 kts 227°
2026-04-26 03:13 48.78681 -58.01260 19613 ft 384 kts 227°
2026-04-26 03:13 48.76748 -58.04068 20242 ft 388 kts 227°
2026-04-26 03:13 48.74817 -58.06875 20863 ft 391 kts 227°
2026-04-26 03:14 48.72847 -58.09733 21473 ft 394 kts 227°
2026-04-26 03:14 48.70877 -58.12588 22060 ft 398 kts 227°
2026-04-26 03:14 48.68864 -58.15502 22634 ft 401 kts 227°
2026-04-26 03:14 48.66842 -58.18426 23203 ft 404 kts 227°
2026-04-26 03:15 48.64813 -58.21355 23752 ft 407 kts 227°
2026-04-26 03:15 48.62756 -58.24319 24287 ft 411 kts 227°
2026-04-26 03:15 48.60688 -58.27299 24794 ft 414 kts 227°
2026-04-26 03:15 48.58602 -58.30301 25318 ft 416 kts 226°
2026-04-26 03:16 48.56516 -58.33298 25819 ft 419 kts 227°
2026-04-26 03:16 48.54396 -58.36342 26303 ft 422 kts 226°
2026-04-26 03:16 48.52293 -58.39357 26774 ft 425 kts 227°
2026-04-26 03:16 48.50147 -58.42431 27251 ft 427 kts 227°
2026-04-26 03:17 48.47992 -58.45516 27680 ft 430 kts 226°
2026-04-26 03:17 48.45823 -58.48613 28100 ft 434 kts 226°
2026-04-26 03:17 48.43634 -58.51740 28526 ft 436 kts 227°
2026-04-26 03:17 48.41421 -58.54893 28954 ft 439 kts 227°
2026-04-26 03:18 48.39191 -58.58065 29359 ft 442 kts 226°
2026-04-26 03:18 48.36978 -58.61212 29754 ft 444 kts 227°
2026-04-26 03:18 48.34740 -58.64388 30094 ft 447 kts 226°
2026-04-26 03:18 48.32467 -58.67613 30405 ft 450 kts 226°
2026-04-26 03:19 48.30183 -58.70846 30737 ft 453 kts 226°
2026-04-26 03:19 48.27884 -58.74097 31059 ft 455 kts 226°
2026-04-26 03:19 48.25584 -58.77345 31334 ft 456 kts 226°
2026-04-26 03:19 48.23266 -58.80613 31612 ft 458 kts 226°
2026-04-26 03:20 48.20960 -58.83866 31866 ft 459 kts 226°
2026-04-26 03:20 48.18643 -58.87125 32102 ft 461 kts 226°
2026-04-26 03:20 48.16323 -58.90389 32359 ft 462 kts 226°
2026-04-26 03:20 48.13966 -58.93700 32611 ft 463 kts 225°
2026-04-26 03:21 48.11623 -58.96983 32838 ft 465 kts 225°
2026-04-26 03:21 48.09285 -59.00257 33063 ft 466 kts 225°
2026-04-26 03:21 48.06912 -59.03571 33367 ft 464 kts 225°
2026-04-26 03:21 48.04572 -59.06836 33675 ft 462 kts 225°
2026-04-26 03:22 48.02245 -59.10083 34003 ft 460 kts 225°
2026-04-26 03:22 47.99900 -59.13346 34335 ft 459 kts 225°
2026-04-26 03:22 47.97570 -59.16582 34653 ft 458 kts 225°
2026-04-26 03:22 47.95259 -59.19788 34951 ft 457 kts 225°
2026-04-26 03:23 47.92927 -59.23020 35263 ft 456 kts 225°
2026-04-26 03:23 47.90627 -59.26209 35544 ft 455 kts 225°
2026-04-26 03:23 47.88322 -59.29398 35795 ft 455 kts 225°
2026-04-26 03:23 47.86020 -59.32577 36027 ft 454 kts 225°
2026-04-26 03:24 47.83688 -59.35795 36228 ft 455 kts 225°
2026-04-26 03:24 47.81379 -59.38977 36393 ft 456 kts 225°
2026-04-26 03:24 47.79065 -59.42165 36573 ft 457 kts 226°
2026-04-26 03:24 47.76745 -59.45353 36765 ft 457 kts 225°
2026-04-26 03:25 47.74403 -59.48569 36944 ft 457 kts 226°
2026-04-26 03:25 47.72071 -59.51765 37127 ft 457 kts 226°
2026-04-26 03:25 47.69734 -59.54967 37282 ft 458 kts 225°
2026-04-26 03:25 47.67404 -59.58155 37441 ft 459 kts 226°
2026-04-26 03:26 47.65064 -59.61351 37601 ft 460 kts 226°
2026-04-26 03:26 47.62711 -59.64561 37752 ft 460 kts 226°
2026-04-26 03:26 47.58016 -59.70956 37810 ft 461 kts 225°
2026-04-26 03:27 47.53327 -59.77323 37824 ft 461 kts 225°
2026-04-26 03:27 47.48593 -59.83735 37829 ft 461 kts 225°
2026-04-26 03:28 47.43890 -59.90090 37825 ft 460 kts 225°
2026-04-26 03:28 47.39190 -59.96425 37845 ft 459 kts 225°
2026-04-26 03:29 47.34473 -60.02766 37850 ft 458 kts 225°
2026-04-26 03:29 47.29781 -60.09059 37850 ft 458 kts 225°
2026-04-26 03:30 47.25113 -60.15304 37861 ft 456 kts 225°
2026-04-26 03:30 47.20422 -60.21561 37863 ft 457 kts 225°
2026-04-26 03:31 47.15716 -60.27829 37860 ft 457 kts 225°
2026-04-26 03:31 47.11016 -60.34066 37866 ft 457 kts 225°
2026-04-26 03:32 47.06325 -60.40281 37864 ft 455 kts 225°
2026-04-26 03:32 47.01642 -60.46468 37859 ft 454 kts 225°
2026-04-26 03:33 46.96978 -60.52612 37854 ft 453 kts 226°
2026-04-26 03:33 46.92270 -60.58804 37858 ft 453 kts 226°
2026-04-26 03:34 46.87601 -60.64926 37849 ft 454 kts 226°
2026-04-26 03:34 46.82900 -60.71078 37847 ft 454 kts 225°
2026-04-26 03:35 46.78235 -60.77166 37847 ft 454 kts 225°
2026-04-26 03:35 46.73518 -60.83307 37854 ft 454 kts 225°
2026-04-26 03:36 46.68837 -60.89388 37853 ft 453 kts 225°
2026-04-26 03:36 46.64145 -60.95466 37874 ft 453 kts 225°
2026-04-26 03:37 46.59428 -61.01563 37883 ft 453 kts 225°
2026-04-26 03:37 46.54750 -61.07594 37881 ft 453 kts 225°
2026-04-26 03:38 46.50053 -61.13636 37882 ft 453 kts 225°
2026-04-26 03:38 46.45341 -61.19682 37886 ft 453 kts 225°
2026-04-26 03:39 46.40617 -61.25731 37893 ft 453 kts 225°
2026-04-26 03:39 46.35902 -61.31750 37901 ft 453 kts 225°
2026-04-26 03:40 46.31191 -61.37752 37904 ft 454 kts 225°
2026-04-26 03:40 46.28817 -61.40771 37788 ft 449 kts 226°
2026-04-26 03:40 46.26497 -61.43712 37071 ft 448 kts 226°
2026-04-26 03:41 46.24145 -61.46699 35820 ft 458 kts 226°
2026-04-26 03:41 46.21768 -61.49719 34493 ft 466 kts 226°
2026-04-26 03:41 46.19350 -61.52781 33478 ft 470 kts 226°
2026-04-26 03:41 46.16886 -61.55899 32508 ft 472 kts 225°
2026-04-26 03:42 46.14481 -61.58935 31755 ft 465 kts 225°
2026-04-26 03:42 46.12065 -61.61976 30798 ft 457 kts 225°
2026-04-26 03:42 46.09688 -61.64963 29652 ft 450 kts 225°
2026-04-26 03:42 46.07391 -61.67850 28964 ft 442 kts 225°
2026-04-26 03:43 46.05075 -61.70759 28523 ft 435 kts 225°
2026-04-26 03:43 46.02817 -61.73591 28097 ft 429 kts 225°
2026-04-26 03:43 46.00588 -61.76386 27683 ft 423 kts 225°
2026-04-26 03:43 45.98395 -61.79133 27259 ft 418 kts 225°
2026-04-26 03:44 45.96247 -61.81824 26853 ft 413 kts 225°
2026-04-26 03:44 45.94097 -61.84509 26422 ft 408 kts 225°
2026-04-26 03:44 45.91971 -61.87165 26015 ft 404 kts 225°
2026-04-26 03:44 45.89848 -61.89814 25603 ft 400 kts 225°
2026-04-26 03:45 45.87752 -61.92424 25193 ft 396 kts 226°
2026-04-26 03:45 45.85696 -61.94986 24780 ft 392 kts 225°
2026-04-26 03:45 45.83637 -61.97548 24392 ft 388 kts 225°
2026-04-26 03:45 45.81625 -62.00046 24009 ft 385 kts 226°
2026-04-26 03:46 45.79609 -62.02548 23601 ft 382 kts 226°
2026-04-26 03:46 45.77618 -62.05019 23182 ft 380 kts 226°
2026-04-26 03:46 45.75632 -62.07477 22767 ft 378 kts 226°
2026-04-26 03:47 45.71690 -62.12358 21920 ft 375 kts 226°
2026-04-26 03:47 45.69721 -62.14790 21507 ft 373 kts 226°
2026-04-26 03:47 45.67767 -62.17202 21089 ft 371 kts 225°
2026-04-26 03:47 45.65811 -62.19613 20677 ft 370 kts 225°
2026-04-26 03:48 45.63885 -62.21983 20271 ft 369 kts 226°
2026-04-26 03:48 45.62011 -62.24451 19849 ft 365 kts 230°
2026-04-26 03:48 45.60275 -62.27101 19438 ft 362 kts 233°
2026-04-26 03:48 45.58628 -62.29778 19046 ft 360 kts 234°
2026-04-26 03:49 45.56994 -62.32453 18644 ft 359 kts 234°
2026-04-26 03:49 45.55359 -62.35130 18262 ft 357 kts 234°
2026-04-26 03:49 45.53746 -62.37764 17896 ft 355 kts 234°
2026-04-26 03:49 45.52116 -62.40418 17508 ft 353 kts 233°
2026-04-26 03:50 45.50510 -62.43026 17127 ft 352 kts 234°
2026-04-26 03:50 45.48898 -62.45636 16739 ft 351 kts 234°
2026-04-26 03:50 45.47308 -62.48213 16364 ft 349 kts 233°
2026-04-26 03:50 45.45706 -62.50807 15977 ft 348 kts 233°
2026-04-26 03:51 45.44108 -62.53388 15598 ft 347 kts 233°
2026-04-26 03:51 45.42516 -62.55960 15215 ft 346 kts 233°
2026-04-26 03:51 45.40933 -62.58514 14844 ft 344 kts 233°
2026-04-26 03:51 45.39347 -62.61070 14467 ft 342 kts 233°
2026-04-26 03:52 45.37793 -62.63571 14109 ft 340 kts 233°
2026-04-26 03:52 45.36230 -62.66086 13735 ft 338 kts 232°
2026-04-26 03:52 45.34682 -62.68576 13341 ft 337 kts 232°
2026-04-26 03:52 45.33135 -62.71059 12963 ft 335 kts 232°
2026-04-26 03:53 45.31596 -62.73527 12573 ft 333 kts 232°
2026-04-26 03:53 45.30064 -62.75984 12183 ft 332 kts 232°
2026-04-26 03:53 45.28538 -62.78429 11804 ft 330 kts 232°
2026-04-26 03:53 45.27043 -62.80823 11430 ft 328 kts 232°
2026-04-26 03:54 45.25537 -62.83232 11042 ft 325 kts 232°
2026-04-26 03:54 45.24033 -62.85634 10673 ft 323 kts 232°
2026-04-26 03:54 45.22555 -62.87992 10300 ft 321 kts 232°
2026-04-26 03:54 45.21076 -62.90349 9958 ft 317 kts 232°
2026-04-26 03:55 45.19532 -62.92522 9728 ft 312 kts 224°
2026-04-26 03:55 45.17804 -62.94333 9385 ft 312 kts 217°
2026-04-26 03:55 45.15966 -62.96006 9021 ft 311 kts 215°
2026-04-26 03:55 45.14143 -62.97620 8665 ft 309 kts 215°
2026-04-26 03:56 45.12324 -62.99231 8311 ft 307 kts 215°
2026-04-26 03:56 45.10532 -63.00827 7962 ft 305 kts 216°
2026-04-26 03:56 45.08743 -63.02430 7615 ft 303 kts 216°
2026-04-26 03:56 45.06972 -63.04022 7271 ft 301 kts 216°
2026-04-26 03:57 45.05208 -63.05609 6928 ft 300 kts 216°
2026-04-26 03:57 45.03477 -63.07167 6590 ft 298 kts 216°
2026-04-26 03:57 45.01733 -63.08736 6249 ft 297 kts 217°
2026-04-26 03:57 44.99986 -63.10305 5914 ft 296 kts 217°
2026-04-26 03:58 44.98263 -63.11851 5579 ft 295 kts 217°
2026-04-26 03:58 44.96531 -63.13407 5255 ft 293 kts 217°
2026-04-26 03:58 44.94843 -63.14919 5128 ft 283 kts 217°
2026-04-26 03:58 44.93211 -63.16375 5062 ft 271 kts 217°
2026-04-26 03:59 44.91664 -63.17755 4983 ft 260 kts 217°
2026-04-26 03:59 44.90157 -63.19101 4960 ft 249 kts 218°
2026-04-26 03:59 44.88698 -63.20411 4940 ft 251 kts 218°
2026-04-26 03:59 44.87209 -63.21749 4656 ft 253 kts 217°
2026-04-26 04:00 44.85739 -63.23064 4381 ft 252 kts 218°
2026-04-26 04:00 44.84297 -63.24435 4118 ft 249 kts 220°
2026-04-26 04:00 44.82890 -63.25833 3858 ft 247 kts 221°
2026-04-26 04:00 44.81493 -63.27228 3606 ft 246 kts 221°
2026-04-26 04:01 44.80119 -63.28596 3546 ft 235 kts 221°
2026-04-26 04:01 44.78960 -63.30127 3428 ft 222 kts 250°
2026-04-26 04:01 44.78722 -63.32100 3301 ft 195 kts 296°
2026-04-26 04:01 44.79439 -63.33550 3235 ft 178 kts 326°
2026-04-26 04:02 44.80361 -63.34686 3025 ft 176 kts 322°
2026-04-26 04:02 44.81173 -63.35900 2730 ft 167 kts 317°
2026-04-26 04:02 44.81902 -63.37132 2515 ft 162 kts 315°
2026-04-26 04:02 44.82568 -63.38339 2349 ft 147 kts 314°
2026-04-26 04:03 44.83150 -63.39437 2142 ft 134 kts 314°
2026-04-26 04:03 44.83674 -63.40449 1932 ft 121 kts 314°
2026-04-26 04:03 44.84163 -63.41391 1782 ft 119 kts 313°
2026-04-26 04:03 44.84645 -63.42329 1633 ft 119 kts 312°
2026-04-26 04:04 44.85128 -63.43275 1482 ft 119 kts 312°
2026-04-26 04:04 44.85607 -63.44223 1324 ft 118 kts 311°
2026-04-26 04:04 44.86086 -63.45171 1160 ft 118 kts 310°
2026-04-26 04:04 44.86559 -63.46112 1024 ft 118 kts 310°
2026-04-26 04:05 44.87034 -63.47064 938 ft 118 kts 309°
2026-04-26 04:05 44.87504 -63.48006 770 ft 118 kts 308°
2026-04-26 04:05 44.87976 -63.48950 603 ft 117 kts 308°
2026-04-26 04:05 44.88443 -63.49873 488 ft 110 kts 308°
2026-04-26 04:06 44.88732 -63.50457 460 ft 30 kts 305°
2026-04-26 04:06 44.88807 -63.50607 455 ft 25 kts 307°
2026-04-26 04:06 44.88819 -63.50837 456 ft 27 kts 217°
2026-04-26 04:06 44.88711 -63.50999 456 ft 20 kts 257°
2026-04-26 04:07 44.88696 -63.51154 456 ft 14 kts 263°
2026-04-26 04:07 44.88691 -63.51234 456 ft 0 kts 268°
2026-04-26 04:07 44.88691 -63.51249 456 ft 4 kts 272°
2026-04-26 04:07 44.88688 -63.51309 456 ft 7 kts 261°
2026-04-26 04:08 44.88680 -63.51369 455 ft 3 kts 260°
2026-04-26 04:08 44.88678 -63.51383 454 ft 0 kts 261°
2026-04-26 04:08 44.88677 -63.51392 454 ft 0 kts 260°
2026-04-26 04:08 44.88676 -63.51398 454 ft 0 kts 260°